STARLINK-35194, 65671

Orbit data source: Space-Track

STARLINK-35194, 65671 is a payload satellite owned by SpaceX/Seattle (US) in SSO that was launched on Fri, 19 Sep 2025 UTC via an FALCON 9 launch vehicle from the Air Force Western Test Range (AFWTR). Payload-class satellites include a variety of spacecraft equipped with specific instruments for various scientific and technological missions. These include communications satellites like Starlink; space stations such as the ISS; scientific satellites like the Hubble; Earth observation satellites from companies like Planet Labs, Umbra, and HawkEye 360; GPS; miniature CubeSats for education and research; and military/defense satellites.

Loading next visibility...
Identifier
65671, 2025-211V
Orbit
SSO
Country
Flag of USUS
Related business
Manufacturer
SpaceX/Seattle
Mission
Operational Commercial Communications
Bus & Motor
STARLINK V2MO, Unknown motor
Mass
575 kg wet, ~530 kg dry
Launch date (UTC)
2025-09-19 (9 months ago)
Launch vehicle
FALCON 9
Launch site
Air Force Western Test Range (AFWTR)
Object type
Payload
Rocket body
Debris
Shape & HBR
Box + 2 Pan, 17.7 m
Radar Cross Section
36.964 m², Large (>1 m²)

Expand to show TLE details & history
Last TLE update: 1 day ago

TLE from 1 day ago
0 STARLINK-35194
1 65671U 25211V   26170.68322283  .00001970  00000-0  14041-3 0  9996
2 65671  97.3379 213.6075 0001895 141.5669 218.5694 15.05657922 42399
Epoch: 2026-06-19T16:23Z
TLE epoch observation values (Epoch: 2026-06-19T16:23:50.452Z)
Latitude
-0°
Longitude
59.7386°
Altitude
553.586 km
Speed
7.584 km/s
True Right ascension
14h 14m 25s
True Declination
0° 00' 00"
Sunlit
Object was in full shadow at epoch
Visualization orbit readout
Latitude
Unknown
Longitude
Unknown
Altitude
Unknown
Speed
Unknown
Apparent Right ascension
Unknown
Apparent Declination
Unknown
Sunlit
N/A
Visualization observer readout
Local Sidereal Time
08:32:56
Azimuth
Unknown
Elevation
Unknown
Doppler factor
Unknown
Orbital elements
Apogee altitude
547.781 km
Perigee altitude
545.157 km
Semi-major axis
6,924.606 km
Eccentricity
0.00019
Inclination
97.3379°
RAAN
213.6075°
Arg. of periapsis
141.5669°
True anomaly
218.55586°
Mean anomaly
218.5694°
Eccentric anomaly
218.56263°
Mean motion
3.76661 °/min
Orbital period
95.58 mins
BSTAR
0.00014041
Loading maneuver chart data...
Computing Atmospheric mass density...
Loading historical data...
Loading historical data...
Loading historical data...
Loading historical data...
Loading historical data...
Loading historical data...
Loading historical data...

Documentation

Showing up to 5 results
|